Location: Bluff Heights
(33.7692°N, 118.1592°W)
Time: 08:21:30
(UTC+00:00)

CZ-4B R/B - Pass Details

Date: 29 October 2020
Orbit: 388 x 461 km, 97.6° (Epoch: 28 November)

Event Time Altitude Azimuth Distance (km) Brightness Sun altitude
Rises 13:34:45 0° 204° (SSW) 2,480 5.0 -7.9°
Reaches altitude 10° 13:37:29 10° 228° (SW) 1,610 3.9 -7.3°
Maximum altitude 13:39:33 15° 265° (W) 1,330 3.2 -6.9°
Drops below altitude 10° 13:41:37 10° 302° (WNW) 1,610 3.6 -6.5°
Sets 13:44:21 0° 326° (NW) 2,480 4.7 -5.9°
Enters shadow 13:44:25 - 327° (NNW) 2,509 4.8 -5.9°
